{"data":{"norad_id":48692,"intl_designator":"2021-044BG","name":"STARLINK-2752","alt_names":[],"object_type":"PAYLOAD","status":"ACTIVE","operator":null,"country":"US","launch_date":"2021-05-26","launch_site_code":"AFETR","launch_vehicle":null,"mission":null,"orbit_class":"UNKNOWN","rcs_meters":null,"size_class":null,"mass_kg":null,"dimensions":null,"purposes":["comms"],"wikipedia_slug":null,"has_3d_model":false,"image_url":null,"decayed_at":null,"tle_current":{"epoch":"2026-05-25T04:40:13.966176Z","epoch_age_seconds":65045,"freshness":"FRESH","line1":"1 48692U 21044BG  26145.19460609 -.00000716  00000+0 -11295-4 0  9990","line2":"2 48692  53.1612  79.2695 0001378  87.1953 272.9206 15.31692365276081","mean_motion":15.31692365,"eccentricity":0.0001378,"inclination_deg":53.1612,"raan_deg":79.2695,"arg_perigee_deg":87.1953,"mean_anomaly_deg":272.9206,"bstar":-1.1295e-5,"rev_number":27608,"period_min":94.013656586974,"perigee_km":469.81897647168,"apogee_km":471.70653324412,"semimajor_km":6848.8997548579,"source":"CELESTRAK","updated_at":"2026-05-25T13:38:16.762992Z"}}}